Tracking 19709 objects as of 18-Jun-2019
HD Live streaming from Space Station
objects crossing your sky now

FLOCK 3P 10

Track FLOCK 3P 10 now!
10-day predictions
FLOCK 3P 10 is classified as:


NORAD ID: 41974
Int'l Code: 2017-008AC
Perigee: 489.1 km
Apogee: 501.1 km
Inclination: 97.4 °
Period: 94.4 minutes
Semi major axis: 6866 km
RCS: Unknown
Launch date: February 15, 2017
Source: United States (US)
Launch site: SRIHARIKOTA (SRI)
aabbcc
Your satellite tracking list
Your tracking list is empty




NASA's NSSDC Master Catalog

Two Line Element Set (TLE):
1 41974U 17008AC  19168.17298553  .00001738  00000-0  70525-4 0  9998
2 41974  97.4071 235.4107 0008772 138.1325 222.0586 15.25937206129540
Source of the keplerian elements: AFSPC